Temp
-16 -16 -16 -16 -16 -16 -16 -16 -17 -18 -18 -19 -20 -20 -20 -20 -20 -21 -21 -21 -21 -21 -22 -22 -22 -22 -22 -23 -23 -23 -22 -21 -21 -21 -21 -21 -20 -19 -18 -18 -17 -17 -16
-16 -16 -16 -16 -17 -17 -17 -18 -19 -19 -20 -20 -20 -20 -20 -21 -22 -22 -22 -23 -23 -23 -23 -23 -23 -23 -23 -23 -23 -23 -22 -22 -22 -21 -21 -21 -21 -20 -19 -18 -18 -18 -15
-17 -17 -17 -17 -17 -18 -19 -19 -20 -21 -21 -21 -21 -21 -22 -23 -23 -23 -24 -25 -25 -25 -25 -24 -24 -24 -24 -24 -23 -23 -23 -23 -22 -22 -22 -22 -22 -21 -19 -19 -18 -18 -17
-18 -18 -18 -18 -19 -19 -20 -21 -21 -21 -21 -21 -22 -23 -23 -23 -23 -25 -26 -27 -27 -27 -27 -26 -26 -25 -25 -25 -24 -24 -24 -23 -23 -22 -23 -22 -22 -22 -21 -19 -19 -18 -17
-18 -18 -19 -20 -20 -21 -21 -21 -21 -21 -21 -22 -23 -23 -23 -23 -24 -26 -26 -27 -28 -27 -27 -27 -27 -26 -26 -26 -25 -25 -25 -24 -24 -23 -23 -23 -23 -22 -21 -21 -19 -19 -19
-19 -20 -20 -21 -21 -22 -21 -21 -21 -22 -22 -23 -23 -23 -23 -23 -24 -25 -26 -27 -28 -28 -28 -28 -28 -27 -27 -27 -26 -26 -25 -25 -24 -24 -23 -24 -23 -23 -22 -21 -21 -19 -18
-21 -21 -22 -22 -22 -22 -21 -21 -22 -22 -23 -23 -22 -22 -23 -24 -24 -25 -26 -26 -27 -28 -28 -28 -28 -28 -28 -27 -27 -27 -26 -26 -26 -26 -25 -25 -26 -24 -24 -22 -21 -20 -19
-22 -22 -22 -22 -22 -22 -21 -22 -23 -23 -22 -22 -22 -23 -23 -24 -24 -25 -25 -26 -27 -27 -28 -28 -27 -27 -27 -27 -27 -27 -26 -26 -26 -27 -25 -26 -26 -26 -24 -23 -22 -21 -20
-23 -23 -22 -22 -22 -22 -22 -23 -23 -22 -22 -22 -22 -22 -23 -24 -25 -25 -25 -26 -26 -27 -27 -28 -28 -28 -28 -27 -28 -27 -27 -27 -27 -27 -27 -27 -26 -27 -26 -25 -24 -22 -21
-23 -23 -22 -22 -22 -22 -22 -23 -22 -22 -22 -22 -23 -23 -23 -24 -25 -25 -25 -26 -26 -26 -27 -27 -28 -28 -28 -27 -27 -27 -27 -28 -28 -27 -27 -27 -27 -27 -27 -26 -25 -24 -22
-23 -23 -22 -22 -22 -22 -23 -22 -21 -22 -22 -22 -23 -23 -24 -24 -25 -25 -25 -26 -26 -26 -27 -27 -28 -28 -28 -27 -27 -27 -27 -28 -28 -28 -28 -27 -27 -27 -27 -26 -25 -24 -22
-23 -23 -23 -23 -23 -22 -22 -22 -22 -22 -22 -22 -23 -23 -24 -24 -25 -25 -25 -26 -26 -26 -27 -27 -28 -28 -28 -28 -28 -28 -28 -28 -27 -28 -28 -28 -27 -27 -27 -26 -25 -24 -23
-23 -23 -23 -23 -23 -22 -22 -22 -22 -22 -22 -23 -23 -23 -23 -24 -24 -25 -25 -25 -26 -26 -27 -28 -28 -28 -28 -28 -28 -28 -28 -28 -28 -28 -28 -28 -28 -28 -28 -27 -25 -24 -22
-23 -23 -23 -23 -23 -23 -22 -22 -21 -22 -22 -23 -22 -23 -23 -24 -24 -24 -25 -25 -26 -26 -27 -27 -28 -28 -28 -28 -28 -28 -28 -28 -28 -28 -28 -28 -28 -27 -27 -26 -25 -23 -21
-23 -23 -23 -23 -23 -23 -22 -22 -22 -22 -22 -22 -22 -22 -23 -24 -24 -25 -25 -25 -25 -26 -27 -27 -28 -28 -28 -27 -27 -28 -28 -28 -28 -28 -28 -27 -27 -27 -26 -25 -24 -22 -21
-24 -23 -23 -23 -23 -23 -23 -23 -23 -23 -23 -22 -22 -22 -23 -24 -23 -24 -24 -25 -25 -26 -27 -27 -28 -28 -28 -28 -28 -28 -28 -28 -28 -28 -27 -27 -26 -26 -25 -24 -23 -22 -22
-24 -23 -23 -23 -23 -24 -24 -23 -23 -22 -22 -21 -21 -22 -22 -23 -23 -24 -24 -25 -25 -25 -26 -27 -27 -28 -28 -28 -28 -28 -28 -28 -28 -27 -27 -27 -26 -25 -24 -23 -22 -22 -21
-24 -23 -23 -24 -24 -24 -23 -23 -23 -22 -22 -21 -21 -21 -21 -22 -22 -24 -24 -25 -25 -25 -26 -26 -26 -27 -27 -27 -28 -28 -27 -27 -27 -27 -27 -26 -25 -24 -23 -22 -22 -21 -21
-23 -23 -24 -24 -24 -23 -23 -23 -23 -22 -22 -21 -21 -21 -20 -21 -21 -21 -22 -24 -24 -25 -25 -25 -25 -25 -25 -26 -26 -27 -27 -27 -27 -27 -27 -26 -25 -24 -22 -22 -21 -21 -21
-23 -23 -24 -23 -23 -23 -23 -23 -23 -22 -22 -21 -21 -21 -20 -20 -21 -20 -21 -21 -21 -22 -23 -24 -24 -25 -25 -25 -25 -25 -26 -26 -26 -25 -25 -25 -25 -24 -23 -21 -21 -21 -21
-23 -23 -23 -23 -23 -23 -23 -23 -22 -22 -21 -21 -20 -20 -20 -20 -20 -20 -20 -20 -20 -20 -21 -22 -22 -22 -23 -23 -24 -24 -24 -24 -24 -24 -24 -24 -24 -23 -22 -21 -21 -21 -21
-23 -23 -23 -23 -23 -23 -22 -22 -22 -22 -21 -20 -20 -20 -20 -20 -19 -19 -19 -19 -20 -20 -20 -20 -20 -21 -21 -21 -21 -22 -22 -22 -22 -22 -22 -22 -21 -21 -21 -21 -21 -20 -20
-23 -23 -23 -22 -22 -22 -22 -22 -21 -21 -21 -19 -19 -19 -19 -19 -19 -19 -19 -19 -20 -20 -20 -20 -20 -20 -20 -20 -21 -21 -20 -20 -21 -20 -21 -21 -21 -21 -21 -20 -20 -20 -20
-23 -22 -22 -22 -22 -22 -22 -21 -21 -21 -20 -19 -19 -19 -19 -19 -19 -19 -19 -19 -19 -20 -20 -20 -20 -20 -20 -20 -20 -20 -21 -21 -21 -21 -21 -21 -21 -21 -20 -21 -21 -21 -21
-22 -22 -21 -21 -22 -21 -21 -21 -21 -21 -20 -19 -19 -18 -18 -19 -19 -19 -19 -19 -19 -19 -19 -20 -20 -20 -21 -21 -21 -22 -22 -21 -21 -21 -21 -22 -22 -22 -22 -22 -21 -21 -20
-22 -22 -21 -21 -21 -21 -21 -21 -21 -20 -20 -19 -18 -19 -19 -19 -19 -19 -19 -19 -19 -19 -19 -20 -19 -19 -20 -21 -21 -21 -22 -22 -22 -22 -22 -22 -22 -21 -20 -19 -19 -20 -20
Height
5681 5672 5664 5655 5645 5635 5627 5618 5608 5598 5588 5580 5571 5563 5553 5545 5534 5524 5515 5509 5503 5502 5501 5501 5504 5503 5507 5511 5516 5520 5527 5534 5544 5552 5557 5564 5572 5585 5598 5611 5621 5630 5640
5665 5656 5647 5637 5626 5617 5606 5595 5586 5577 5567 5557 5548 5539 5528 5517 5508 5497 5488 5480 5473 5470 5472 5473 5479 5480 5486 5490 5495 5503 5509 5517 5525 5535 5540 5548 5554 5565 5579 5593 5603 5616 5626
5646 5636 5627 5617 5606 5595 5585 5575 5565 5556 5547 5536 5525 5514 5504 5493 5483 5470 5456 5446 5439 5439 5442 5446 5451 5456 5464 5469 5476 5484 5490 5497 5505 5514 5523 5530 5538 5547 5561 5575 5587 5600 5613
5629 5619 5608 5597 5586 5576 5566 5557 5546 5536 5526 5515 5504 5494 5484 5474 5461 5444 5432 5425 5420 5418 5418 5419 5425 5432 5441 5448 5456 5465 5472 5479 5487 5497 5505 5513 5521 5532 5543 5555 5569 5583 5597
5610 5599 5588 5577 5567 5558 5549 5539 5529 5517 5505 5495 5487 5478 5467 5455 5440 5425 5415 5408 5405 5403 5401 5400 5403 5411 5421 5430 5439 5448 5455 5464 5472 5480 5488 5497 5507 5516 5529 5537 5550 5567 5578
5591 5580 5570 5560 5551 5541 5532 5522 5511 5500 5489 5480 5471 5462 5453 5441 5428 5414 5403 5394 5388 5387 5388 5388 5389 5395 5404 5414 5425 5433 5441 5450 5460 5466 5474 5482 5492 5503 5511 5520 5530 5547 5561
5573 5563 5554 5545 5536 5527 5517 5505 5494 5485 5477 5468 5459 5449 5440 5428 5417 5405 5394 5385 5379 5375 5376 5377 5379 5384 5391 5400 5410 5419 5426 5435 5445 5452 5460 5469 5477 5486 5494 5505 5515 5530 5548
5557 5548 5540 5531 5522 5512 5502 5491 5482 5474 5466 5458 5448 5437 5426 5417 5407 5397 5386 5378 5371 5367 5365 5367 5369 5374 5381 5389 5398 5406 5413 5425 5435 5442 5449 5456 5465 5472 5483 5492 5501 5514 5527
5543 5535 5526 5517 5509 5498 5489 5480 5472 5465 5457 5447 5437 5427 5416 5407 5397 5388 5379 5371 5364 5360 5357 5357 5362 5367 5373 5381 5389 5395 5404 5415 5422 5430 5437 5446 5456 5462 5469 5478 5489 5501 5517
5532 5524 5514 5505 5495 5487 5479 5472 5464 5456 5448 5439 5429 5419 5408 5399 5389 5381 5372 5365 5358 5354 5351 5350 5354 5360 5367 5375 5383 5392 5399 5407 5415 5421 5428 5437 5445 5452 5457 5468 5478 5490 5505
5522 5513 5503 5493 5484 5477 5471 5463 5456 5449 5441 5432 5423 5412 5400 5390 5382 5374 5367 5360 5354 5350 5347 5348 5350 5355 5362 5370 5378 5386 5393 5399 5406 5413 5419 5427 5436 5443 5450 5460 5470 5481 5495
5512 5502 5493 5483 5475 5469 5462 5456 5450 5443 5435 5426 5417 5406 5393 5383 5375 5368 5361 5355 5351 5347 5345 5346 5349 5353 5359 5366 5374 5381 5387 5394 5401 5407 5412 5419 5428 5437 5445 5454 5463 5472 5484
5502 5492 5484 5476 5469 5462 5456 5450 5444 5437 5430 5423 5413 5401 5391 5380 5370 5361 5355 5351 5347 5344 5342 5343 5347 5352 5357 5364 5372 5379 5384 5391 5396 5402 5409 5416 5423 5430 5437 5444 5453 5463 5475
5492 5484 5476 5470 5464 5456 5450 5445 5439 5433 5427 5419 5409 5399 5390 5380 5368 5358 5350 5347 5344 5342 5341 5342 5345 5350 5356 5361 5368 5374 5380 5386 5392 5399 5406 5411 5417 5424 5431 5438 5447 5458 5469
5485 5477 5471 5464 5458 5452 5446 5440 5435 5429 5423 5415 5408 5398 5389 5380 5366 5355 5348 5344 5343 5342 5341 5341 5344 5347 5352 5357 5364 5369 5375 5381 5389 5396 5402 5407 5413 5419 5426 5434 5442 5453 5465
5479 5472 5466 5460 5453 5447 5443 5439 5432 5427 5422 5415 5407 5399 5390 5380 5372 5360 5352 5348 5346 5343 5343 5343 5345 5347 5350 5355 5360 5366 5373 5381 5388 5394 5399 5405 5410 5417 5424 5431 5440 5450 5461
5474 5468 5462 5456 5450 5445 5441 5438 5433 5427 5421 5414 5408 5401 5392 5384 5375 5368 5361 5355 5352 5350 5349 5348 5348 5349 5352 5356 5361 5366 5373 5380 5385 5391 5398 5403 5409 5415 5422 5430 5438 5448 5458
5469 5464 5459 5454 5449 5445 5441 5435 5431 5426 5420 5415 5409 5404 5396 5388 5381 5374 5369 5364 5362 5360 5357 5355 5353 5353 5354 5357 5362 5367 5374 5379 5386 5391 5397 5402 5408 5415 5422 5430 5439 5448 5456
5467 5462 5457 5453 5449 5444 5440 5435 5430 5426 5421 5417 5411 5406 5400 5393 5387 5381 5375 5372 5369 5367 5365 5364 5362 5361 5362 5362 5364 5368 5374 5380 5386 5391 5397 5402 5407 5414 5421 5430 5438 5446 5455
5464 5460 5456 5453 5449 5445 5440 5436 5432 5428 5424 5418 5413 5408 5403 5398 5394 5389 5384 5379 5376 5373 5372 5371 5370 5369 5369 5370 5371 5373 5378 5382 5386 5391 5397 5403 5408 5413 5421 5429 5438 5447 5456
5461 5458 5455 5452 5450 5446 5442 5438 5435 5431 5426 5421 5416 5411 5407 5402 5399 5395 5391 5388 5384 5381 5380 5378 5377 5376 5376 5377 5378 5380 5382 5385 5388 5392 5397 5403 5408 5415 5423 5433 5442 5451 5458
5460 5456 5454 5452 5449 5446 5443 5440 5437 5432 5427 5423 5418 5415 5411 5407 5403 5400 5398 5394 5392 5390 5388 5386 5385 5384 5384 5385 5386 5388 5389 5391 5394 5398 5403 5409 5416 5423 5430 5437 5445 5452 5460
5458 5455 5453 5452 5450 5447 5445 5442 5439 5434 5429 5424 5421 5418 5414 5410 5408 5405 5403 5400 5397 5397 5396 5394 5393 5393 5393 5393 5394 5395 5397 5400 5402 5407 5412 5417 5423 5429 5435 5441 5448 5454 5460
5456 5454 5453 5451 5450 5448 5447 5444 5441 5436 5431 5428 5425 5422 5418 5415 5412 5410 5408 5407 5406 5406 5406 5404 5403 5403 5402 5401 5402 5403 5405 5407 5411 5415 5420 5424 5429 5435 5441 5447 5452 5458 5462
5454 5453 5453 5452 5451 5450 5449 5447 5444 5439 5434 5432 5430 5428 5424 5422 5420 5419 5418 5418 5418 5417 5417 5416 5415 5414 5412 5413 5413 5415 5416 5418 5421 5424 5428 5432 5437 5442 5447 5451 5455 5460 5466
5454 5452 5452 5453 5452 5451 5450 5449 5446 5442 5439 5437 5436 5434 5432 5430 5428 5428 5427 5428 5428 5426 5426 5425 5426 5425 5424 5424 5426 5427 5429 5430 5432 5435 5437 5441 5445 5449 5453 5459 5464 5470 5474
Wind_Speed
68 70 71 73 76 78 79 79 79 78 78 75 73 76 78 79 81 82 82 80 80 76 73 70 66 64 62 59 58 56 55 54 50 48 49 59 71 73 71 67 64 67 48
73 75 77 77 78 79 79 78 77 75 73 74 76 78 79 76 74 75 78 80 80 78 73 68 63 60 58 57 57 55 54 55 57 53 53 53 61 71 75 67 64 63 58
76 77 78 80 81 79 77 76 73 70 73 75 78 73 66 66 73 80 82 74 68 66 64 63 64 62 60 59 57 55 53 54 55 54 51 52 55 63 72 74 73 70 63
79 80 81 81 78 74 72 68 68 71 74 74 67 58 63 69 75 69 59 53 51 51 52 55 58 61 59 58 56 53 53 52 54 53 54 55 56 58 65 76 77 67 67
82 82 79 75 72 69 66 65 69 72 68 61 53 56 60 65 63 54 49 47 47 45 40 40 46 50 52 52 53 50 52 52 52 51 52 54 53 56 58 68 80 77 77
82 78 72 68 65 63 64 67 69 64 53 51 51 55 56 58 54 48 47 44 41 39 34 31 34 40 43 42 46 41 44 50 50 52 51 52 53 54 57 64 72 75 79
75 67 64 62 60 62 65 66 60 48 48 48 51 55 58 54 50 44 42 40 36 35 31 29 27 31 37 39 46 36 36 27 40 45 46 44 36 51 58 63 68 72 80
61 60 58 58 60 61 62 54 44 42 43 48 52 53 50 47 45 42 39 35 33 28 29 27 27 29 33 36 42 44 46 43 44 34 41 43 44 47 54 61 65 67 78
56 55 56 59 58 58 48 42 39 39 44 46 46 44 43 40 39 35 35 31 27 23 22 27 26 28 31 33 37 39 42 40 27 33 35 47 44 44 52 61 64 65 71
52 54 56 56 55 46 39 38 35 41 41 43 38 40 41 36 34 31 28 28 22 21 20 19 26 25 27 29 32 37 38 38 33 32 36 44 41 44 47 55 61 63 66
51 53 53 52 46 38 37 33 35 37 40 37 38 44 39 36 33 28 24 25 23 18 13 12 17 23 28 34 44 16 35 35 29 28 35 37 41 45 41 48 58 62 65
50 50 49 45 37 38 31 30 35 38 39 35 40 44 37 36 30 27 23 19 22 16 10 13 16 20 32 40 44 35 30 27 28 28 32 36 38 40 41 50 49 53 62
47 48 43 35 37 33 27 31 38 36 34 34 40 37 36 34 33 31 26 18 18 14 11 11 18 19 27 41 32 31 34 32 30 31 32 32 32 34 37 43 47 48 56
47 41 36 32 31 29 27 32 35 34 30 34 36 30 33 35 27 28 24 16 14 10 7 12 19 23 23 30 35 34 33 32 33 31 29 30 31 31 33 38 43 48 52
38 37 28 32 28 27 28 30 31 27 29 32 30 30 27 32 37 23 16 12 9 3 0 4 12 17 21 23 28 28 30 30 29 25 24 25 25 29 33 36 38 42 46
35 28 28 28 26 25 23 24 26 26 30 23 25 28 28 25 34 28 21 15 10 8 6 4 6 11 14 18 21 25 29 29 25 22 23 24 24 24 27 30 32 35 37
30 22 26 26 23 21 21 21 22 23 18 19 23 25 27 27 30 33 30 23 23 20 17 12 8 7 11 17 23 29 30 26 25 24 23 23 24 25 26 28 31 34 36
22 22 24 20 18 19 21 24 17 15 16 18 20 23 24 26 29 27 27 29 29 25 21 21 19 14 10 15 19 24 29 30 27 26 25 23 24 26 28 29 31 33 34
15 20 19 16 18 19 20 17 15 16 17 16 18 18 26 26 30 30 26 22 20 19 18 17 17 19 21 18 20 26 31 31 32 30 27 27 26 27 30 32 31 32 31
15 17 15 14 15 16 15 12 10 10 11 13 16 20 26 26 24 24 24 22 23 23 19 16 15 14 10 13 16 20 24 28 33 32 30 25 24 26 30 32 28 25 27
15 15 15 12 13 11 8 8 9 11 10 12 14 18 19 18 19 21 20 26 21 21 19 20 20 17 15 13 12 14 18 18 16 14 15 22 28 32 32 32 33 32 30
13 12 14 11 10 7 4 8 11 15 12 10 11 14 16 16 15 15 14 15 18 19 22 20 21 20 19 19 18 19 22 22 26 29 31 33 34 36 38 34 31 30 28
12 10 11 7 6 2 5 9 13 17 14 10 12 13 13 13 12 10 9 10 11 16 22 28 27 25 24 28 29 22 25 25 25 29 31 34 35 34 33 31 30 29 30
10 10 6 4 3 1 5 10 14 18 13 10 12 15 14 18 19 16 16 18 30 36 32 29 29 26 28 26 25 23 26 32 30 33 33 33 33 33 33 31 29 27 23
10 9 3 5 3 4 6 11 14 18 13 15 17 17 14 16 17 20 23 30 30 27 29 29 28 28 30 30 31 32 31 29 28 30 33 33 33 31 29 27 26 28 31
9 5 4 6 6 6 7 11 15 17 15 18 19 16 18 21 18 19 21 28 27 27 27 27 27 30 35 37 36 33 33 32 34 36 34 32 31 32 35 38 38 35 32
Wind_Direction
305 307 307 307 306 306 307 306 305 304 302 302 300 299 297 296 294 291 289 286 282 278 273 271 267 261 258 256 250 250 249 248 243 236 235 234 233 232 233 233 232 227 218
307 307 306 306 307 307 306 305 304 304 304 303 302 301 300 297 295 292 289 285 280 275 270 265 261 257 253 252 249 249 250 247 245 240 236 232 233 229 228 229 232 223 219
307 307 307 307 307 306 306 305 305 306 305 304 304 303 301 300 301 300 295 288 280 274 268 263 258 253 249 249 249 250 248 243 240 237 234 231 231 231 225 223 223 220 216
306 307 307 306 307 306 306 306 306 306 306 306 305 304 304 305 307 304 295 288 284 281 274 265 256 251 247 245 245 244 241 239 239 234 233 231 229 228 226 224 223 218 215
307 307 306 307 306 306 308 308 308 308 307 307 306 307 308 311 315 310 305 289 283 283 282 269 252 246 243 240 241 238 235 236 236 235 233 232 230 230 226 227 225 219 227
305 305 306 304 307 309 309 310 310 309 308 309 308 310 311 314 322 316 313 307 289 278 275 267 252 238 231 234 236 242 236 234 234 235 234 231 229 230 228 225 227 220 221
308 306 305 309 310 310 311 312 311 310 312 310 311 311 311 312 320 326 310 309 305 283 273 265 249 235 228 219 212 218 205 220 228 227 227 231 223 226 224 226 226 222 218
305 305 309 309 310 312 313 314 314 314 314 314 315 315 314 311 313 320 320 307 308 298 269 259 250 239 232 224 224 211 200 213 221 220 208 209 217 224 219 223 226 223 219
305 309 310 311 313 314 316 316 315 315 318 320 319 320 318 317 315 319 325 316 308 297 279 249 238 226 221 209 200 200 207 196 192 214 215 219 223 223 218 216 223 225 218
310 311 312 313 315 317 318 318 317 318 320 321 323 325 324 319 316 318 329 326 308 296 281 256 227 218 214 204 199 195 209 226 218 222 220 223 225 220 218 215 218 221 216
313 314 314 315 318 318 318 318 318 321 322 320 326 331 328 322 314 316 319 337 320 305 268 246 216 208 202 193 187 193 202 202 223 228 218 216 217 216 219 215 216 220 215
316 315 317 319 318 318 317 322 324 323 322 322 333 335 337 334 326 316 323 327 333 304 269 234 223 205 200 194 199 214 218 226 239 226 215 210 208 208 212 214 213 213 214
318 320 321 320 320 316 320 328 327 321 324 330 336 344 347 342 336 327 317 322 329 309 264 214 204 204 200 193 198 217 217 232 222 212 208 202 201 205 206 208 207 208 210
322 323 322 321 323 323 323 319 323 327 330 336 342 345 348 349 347 347 321 317 302 311 266 221 205 206 204 199 211 218 221 219 202 198 193 198 201 207 206 204 202 204 205
324 325 323 328 329 321 316 322 331 339 336 342 346 347 341 359 358 2 352 331 305 340 305 192 200 208 210 210 207 204 204 196 188 188 197 204 205 199 195 196 195 198 202
327 325 331 331 329 325 331 338 341 343 337 346 357 357 5 8 25 28 26 33 29 59 77 106 144 167 174 182 183 183 183 182 183 194 197 195 195 192 188 189 187 189 193
329 332 335 334 335 340 346 349 344 337 354 5 13 4 5 22 35 44 49 45 58 64 66 81 111 157 167 172 175 176 178 178 179 176 186 192 195 193 191 192 191 193 196
332 338 336 330 337 345 351 348 359 7 18 18 21 15 11 22 30 43 47 58 65 66 69 73 76 89 143 176 177 177 175 172 173 178 181 189 193 194 195 197 193 190 195
333 338 332 334 341 351 350 352 5 8 6 16 17 19 26 37 37 38 44 57 57 58 69 73 67 84 104 125 152 158 160 167 173 176 179 182 187 194 194 195 195 195 198
336 337 341 334 337 342 350 353 5 358 354 8 20 27 31 42 48 47 46 50 59 65 72 74 68 78 60 79 111 133 152 170 169 159 150 149 161 175 187 193 189 181 172
334 338 344 329 330 345 5 24 8 11 11 4 9 8 5 23 42 45 41 50 67 75 79 85 88 92 97 102 110 116 124 129 134 146 155 161 163 159 155 154 154 158 166
339 338 345 334 328 347 25 35 10 6 11 29 33 35 43 40 40 47 45 44 49 58 63 69 87 99 101 104 106 115 127 129 133 136 136 137 142 147 151 153 156 160 171
339 341 342 327 318 331 52 39 11 9 11 38 50 46 33 23 32 52 56 54 59 65 81 85 92 92 96 103 100 103 126 127 133 129 131 133 136 143 153 160 166 176 181
343 345 334 293 271 126 65 39 16 14 20 56 63 57 43 46 61 76 71 68 84 103 82 75 88 89 86 85 102 104 119 135 139 142 146 151 154 158 154 152 155 156 160
343 342 311 249 227 136 68 39 27 20 45 74 74 80 83 71 68 72 79 93 96 92 83 83 94 94 100 99 97 102 104 108 123 141 136 135 140 141 145 150 148 149 149
340 328 240 215 154 128 68 47 35 32 61 84 91 86 83 77 75 84 95 104 94 89 84 86 93 92 98 100 98 102 103 101 106 111 114 119 124 130 132 132 132 131 132